Regional Weather Roundup
Issued by NWS

Home | Current Version | Previous Version | Text Only | Print | Product List | Glossary Off
Versions: 1 2 3 4 5 6 7 8 9 10 11 12 13 14 15 16 17 18 19 20 21 22 23 24 25 26 27 28 29 30 31 32 33 34 35 36 37 38 39 40 41 42 43 44 45 46 47 48 49 50

000
ASUS43 KDMX 162301
RWRIA

WEATHER ROUNDUP FOR IOWA
NATIONAL WEATHER SERVICE DES MOINES IA
500 PM CST SAT DEC 16 2017

NOTE: "FAIR" INDICATES FEW OR NO CLOUDS BELOW 12,000 FEET WITH NO
SIGNIFICANT WEATHER AND/OR OBSTRUCTIONS TO VISIBILITY.

* - THESE STATIONS ARE NOT NWS STATIONS...THUS NOT UNDER NWS
QUALITY CONTROL.  THEY ALSO DO NOT REPORT WEATHER SUCH
AS PRECIPITATION OR FOG.

IAZ001>003-012>014-020>022-031>034-043>046-170000-
   NORTHWEST IOWA

CITY           SKY/WX    TMP DP  RH WIND       PRES   REMARKS
CARROLL *      CLEAR     45  28  53 NE7       29.89R
CHEROKEE *     CLEAR     42  30  62 N10       29.92R
LE MARS *      CLEAR     41  30  65 N6        29.93R
ORANGE CITY *  PTCLDY    43  34  70 NE7       29.93R
SHELDON *      PTCLDY    39  30  70 N13       29.91R WCI  32
SIOUX CITY     CLEAR     44  31  60 N12       29.92R
SPENCER        CLOUDY    39  29  67 N12       29.93R WCI  32
STORM LAKE *   CLEAR     41  30  65 NE8       29.91R
$$

IAZ055>058-069>071-079>083-090>094-170000-
   SOUTHWEST IOWA

CITY           SKY/WX    TMP DP  RH WIND       PRES   REMARKS
ATLANTIC *     CLOUDY    46  25  42 CALM      29.89R
AUDUBON *      CLEAR     43  27  52 CALM      29.90R
CLARINDA *     CLEAR     45  25  45 CALM        N/A
COUNCIL BLFS * CLEAR     46  27  46 NE7       29.89R
CRESTON *      CLEAR     46  25  42 SW5       29.91R
HARLAN  *      CLEAR     45  27  49 CALM      29.92R
LAMONI         CLEAR     49  26  41 S5        29.89R
RED OAK *      CLEAR     45  25  45 CALM      29.89R
SHENANDOAH *   CLEAR     50  25  37 CALM      29.89S
$$

IAZ047>049-059>061-072>074-084-170000-
   CENTRAL IOWA

CITY           SKY/WX    TMP DP  RH WIND       PRES   REMARKS
AMES           CLEAR     47  28  47 CALM      29.90R
ANKENY *       CLEAR     46  27  46 CALM      29.90R
BOONE *        CLEAR     45  27  49 NE6       29.89R
CHARITON *     CLEAR     45  25  45 SW6       29.90R
DES MOINES     PTCLDY    51  26  37 CALM      29.89R
GRINNELL*      CLOUDY    48  26  41 CALM      29.91R
KNOXVILLE *    CLEAR     50  25  37 S3        29.88R
MARSHALLTOWN   CLEAR     45  27  49 CALM      29.89R
NEWTON *       CLEAR     48  25  40 CALM      29.90R
PELLA *        CLEAR     48  25  40 CALM      29.91R
PERRY *          N/A     47  24  40 NE5       29.89R
$$

IAZ004>006-015-016-023>025-035-036-170000-
   NORTH CENTRAL IOWA

CITY           SKY/WX    TMP DP  RH WIND       PRES   REMARKS
ALGONA *       CLOUDY    39  30  70 N14       29.92S WCI  31
CLARION *      CLEAR     37  28  70 N9        29.91R WCI  31
ESTHERVILLE    CLOUDY    35  29  78 N12       29.93R WCI  27
FORT DODGE *   PTCLDY    42  28  57 N8        29.91R
MASON CITY     PTCLDY    35  24  64 NE7       29.94R WCI  29
FOREST CITY *    N/A     36  30  80 N7        29.93R WCI  30
WEBSTER CITY * PTCLDY    43  28  56 NE5       29.89R
IOWA FALLS *     N/A     46  29  52 N3        29.91R
$$

IAZ007>011-017>019-026>030-037>042-050>054-066-170000-
   NORTHEAST IOWA

CITY           SKY/WX    TMP DP  RH WIND       PRES   REMARKS
CEDAR RAPIDS   CLEAR     44  25  47 CALM      29.90R
CHARLES CITY * PTCLDY    39  27  60 NE5       29.92R
DECORAH *      CLEAR     36  28  75 NE5       29.93R WCI  32
DUBUQUE        CLEAR     39  27  62 NE6       29.94R WCI  35
MONTICELLO *   CLEAR     41  25  52 CALM      29.92R
OELWEIN *      CLEAR     39  27  60 NE8       29.92R WCI  34
WATERLOO       CLOUDY    34  21  59 N5        29.91R WCI  30
$$

IAZ064-065-067-068-078-170000-
   EAST CENTRAL IOWA

CITY           SKY/WX    TMP DP  RH WIND       PRES   REMARKS
DAVENPORT      CLEAR     41  25  53 CALM      29.95R
IOWA CITY      CLEAR     43  26  51 CALM      29.93R
MT. PLEASANT * CLEAR     47  25  41 CALM      29.92R
MUSCATINE *    CLEAR     45  25  45 CALM      29.93R
QUAD CITIES    CLEAR     38  25  59 CALM      29.92R
$$

IAZ062-063-075>077-085>089-095>099-170000-
   SOUTHEAST IOWA

CITY           SKY/WX    TMP DP  RH WIND       PRES   REMARKS
BURLINGTON     CLEAR     46  27  47 CALM      29.92R HAZE
FAIRFIELD *    CLEAR     46  25  42 CALM      29.91R
FORT MADISON * CLEAR     52  28  40 CALM      29.93R
KEOKUK *       CLEAR     50  27  40 SW7       29.91R
OSKALOOSA *      N/A     46  26  46 SW3       29.91R
OTTUMWA        CLEAR     43  24  47 S5        29.91R
WASHINGTON *   CLEAR     46  27  46 CALM      29.92R HAZE
$$

ABBREVIATIONS USED IN REMARKS
   TC - TEMPERATURES IN CELSIUS
  WCI - WIND CHILL INDEX
   HX - HEAT INDEX
  VSB - VISIBILITY
$$




USA.gov is the U.S. government's official web portal to all federal, state and local government web resources and services.